Theta_e
354 351 350 349 351 353 353 354 353 353 353 351 351 351 351 351 351 351 351 345 349 352 351 352 352 352 351 353 352 347 350 341 340 347 353 347 348 347 346 348 349 351 351
351 352 351 351 354 353 354 352 349 352 353 353 353 353 353 352 352 351 345 350 351 351 350 350 350 350 351 351 352 351 347 348 343 345 346 348 350 350 347 342 340 349 350
351 351 352 353 350 352 353 350 352 353 353 352 353 352 353 351 347 352 352 351 351 351 350 350 350 349 349 350 351 352 352 347 350 347 348 347 345 345 342 339 350 345 346
349 351 353 350 352 353 351 353 353 353 353 353 353 352 353 351 353 352 352 352 353 352 351 350 349 349 349 348 349 351 343 344 347 347 346 348 351 347 342 342 344 348 344
352 353 352 354 352 351 348 350 353 352 352 352 349 350 351 352 352 352 352 352 352 349 345 347 347 349 349 347 342 343 339 338 347 349 338 343 350 351 351 348 347 348 346
353 351 348 353 353 352 351 352 352 353 348 349 350 351 351 352 352 351 350 350 350 346 344 344 346 348 344 342 342 341 341 345 348 348 347 349 346 350 351 349 342 338 341
352 351 350 352 352 353 348 350 353 351 351 352 351 351 350 347 346 345 342 342 341 343 347 345 348 341 346 340 341 338 337 346 347 348 341 348 350 350 351 351 348 346 347
348 352 350 352 353 351 343 349 353 351 345 347 341 343 343 340 341 342 344 345 346 347 352 344 340 341 342 341 339 341 346 347 343 346 348 338 343 346 349 347 346 346 345
346 346 351 350 348 348 346 347 349 348 347 345 343 344 344 344 344 344 345 344 345 346 346 344 342 340 341 342 340 339 340 343 346 345 346 336 339 346 347 345 341 340 343
345 348 350 347 350 349 347 338 339 344 344 344 345 343 344 346 344 347 344 344 345 349 350 349 343 340 339 342 340 339 340 345 345 346 344 341 343 344 344 349 349 349 350
345 348 346 347 345 344 343 343 343 343 343 345 344 348 351 354 352 350 349 344 346 346 344 343 340 338 338 337 342 343 346 346 345 344 339 338 341 343 343 344 345 348 346
345 345 344 345 346 346 349 350 352 352 353 353 352 351 352 354 352 347 344 344 346 344 345 345 341 339 344 342 345 346 345 344 344 342 338 341 342 341 343 344 346 347 347
343 343 343 346 348 350 351 352 352 353 355 354 355 355 353 351 348 348 349 348 341 348 350 351 349 347 347 348 346 346 346 344 344 342 340 341 342 343 342 338 339 339 336
342 342 344 347 349 350 349 351 351 352 352 352 353 352 356 351 351 350 346 348 344 349 339 349 353 354 353 350 350 346 346 345 343 340 340 340 340 339 331 331 331 330 332
342 343 344 348 350 352 349 347 350 351 351 350 333 350 351 342 348 349 348 349 352 350 345 351 350 347 349 351 347 348 347 346 345 339 340 337 339 333 328 328 330 327 330
342 344 346 352 350 354 352 348 351 348 348 352 354 356 354 353 350 354 356 352 348 354 354 350 352 348 349 350 349 348 347 345 348 345 341 341 339 334 329 327 327 325 330
340 345 351 352 352 355 350 351 353 350 351 351 353 354 356 352 356 356 347 347 348 346 346 347 349 350 351 347 342 346 347 346 346 348 347 341 338 334 330 327 326 325 325
339 350 351 350 353 353 350 354 354 351 350 352 353 354 355 355 355 359 348 348 344 347 346 346 344 344 348 346 346 346 346 344 345 348 349 347 345 339 331 329 327 326 326
341 350 350 352 353 352 351 354 353 353 351 352 351 354 353 354 356 354 352 353 342 342 343 349 347 346 349 346 345 347 347 346 348 348 349 349 348 344 339 330 328 329 330
343 350 351 353 351 354 349 355 351 353 353 350 352 354 357 353 355 354 350 353 351 343 343 350 351 349 349 347 347 348 347 346 348 347 347 348 347 346 344 341 336 333 333
343 351 354 353 353 354 357 353 347 352 349 356 356 355 352 353 356 356 355 356 349 347 350 348 346 346 348 349 348 347 347 346 346 343 342 345 346 343 341 344 343 342 339
345 351 354 356 351 356 352 352 351 351 349 354 353 353 352 354 356 359 357 357 359 357 355 345 344 343 339 341 346 349 356 348 340 337 338 337 339 334 336 342 339 340 342
345 351 355 356 354 354 354 352 354 356 353 355 352 353 353 358 356 355 355 359 357 357 351 343 339 337 336 332 334 340 350 349 343 338 335 334 328 332 332 331 335 336 337
345 349 354 356 358 352 356 352 355 355 355 354 352 355 353 356 358 356 357 358 357 355 353 348 335 336 336 336 334 332 331 331 342 348 336 336 332 333 332 331 333 333 336
344 345 352 354 360 353 355 354 353 356 352 351 355 353 354 355 357 357 359 359 361 358 352 352 339 336 332 334 334 335 331 334 331 336 342 339 334 333 332 332 332 332 336
346 345 349 353 359 356 355 357 354 353 355 352 354 352 356 354 357 357 360 360 361 361 360 353 348 339 329 332 329 331 330 332 334 333 339 333 332 333 332 331 331 332 331
Wind_Speed
14 12 12 10 10 10 12 12 13 12 13 13 14 14 13 12 12 12 13 14 15 14 14 14 13 12 12 11 11 10 11 11 13 15 16 17 18 17 14 14 15 14 14
17 13 13 11 10 12 11 11 13 13 13 14 14 14 14 14 13 14 15 16 15 14 13 13 12 12 12 11 9 9 9 9 10 13 14 15 15 16 19 19 14 14 13
19 14 12 12 11 12 12 13 13 13 13 13 14 14 15 15 16 16 15 14 14 13 12 12 11 11 10 9 8 8 7 8 8 9 12 13 14 13 13 15 16 15 13
18 17 13 14 13 13 12 13 12 13 13 13 14 14 15 15 15 15 15 13 12 12 11 10 10 9 9 8 7 6 6 8 9 7 8 3 11 12 14 15 16 15 13
20 17 15 13 12 13 13 13 12 12 13 13 13 13 14 13 13 13 12 11 10 10 9 8 9 8 8 7 5 5 7 11 10 9 16 10 13 11 13 15 15 13 8
19 18 15 14 13 13 13 12 11 12 11 12 13 12 12 12 11 10 9 9 9 8 8 8 8 8 8 7 5 5 7 11 14 19 18 12 12 10 11 12 9 11 9
21 18 15 14 14 13 11 13 11 10 10 10 10 10 10 10 9 8 7 7 7 7 7 9 9 8 7 6 6 6 8 10 11 11 12 10 11 10 11 11 11 10 8
19 18 15 15 13 12 11 11 11 9 9 9 8 8 9 8 8 8 7 6 6 6 6 6 7 9 8 8 8 10 12 10 10 12 12 12 11 10 10 9 10 9 7
19 18 15 13 11 11 10 10 10 9 8 7 7 7 8 7 7 7 7 6 7 6 5 7 10 10 10 12 12 12 10 9 6 7 12 12 12 12 11 10 9 7 7
17 19 19 12 12 11 9 10 9 7 7 7 7 8 9 9 11 8 8 6 6 5 5 7 12 13 15 16 14 12 10 9 8 8 9 12 12 11 10 8 7 7 5
15 20 17 15 12 12 9 8 9 7 7 4 2 6 6 5 7 8 6 9 8 6 9 9 10 16 19 21 20 15 9 7 8 10 9 10 11 10 10 9 8 7 6
12 17 15 14 15 13 11 6 8 3 6 3 3 6 4 7 11 11 12 13 10 8 3 11 10 16 12 16 20 18 15 13 9 7 12 12 11 10 11 10 9 9 10
17 15 15 16 15 11 10 6 10 8 6 8 4 4 3 8 12 10 11 20 6 5 4 6 10 15 13 12 11 11 15 18 17 14 13 12 12 11 10 11 10 10 10
17 17 17 14 14 15 8 9 8 10 7 11 10 4 4 5 16 11 4 27 16 20 3 9 13 10 11 9 9 6 6 23 15 15 16 14 13 11 10 11 10 10 11
16 16 20 14 11 7 12 7 11 9 12 15 11 11 3 5 8 8 7 9 25 6 5 13 11 5 13 12 7 12 19 18 14 14 16 14 15 13 11 11 11 10 11
17 17 17 13 11 9 9 9 6 14 10 16 14 7 5 6 7 3 5 11 11 9 17 15 6 10 13 9 8 11 11 14 16 13 14 14 12 11 10 10 10 10 10
19 19 18 16 13 9 8 6 1 10 13 12 10 5 6 5 5 8 14 13 10 11 11 10 6 6 8 11 10 11 15 12 12 16 13 15 14 10 8 7 8 7 6
21 22 19 18 17 12 10 7 7 6 11 16 14 7 6 7 9 13 14 10 9 14 11 8 9 3 15 10 7 7 15 10 9 16 13 15 14 15 11 7 6 5 5
23 24 19 19 18 14 10 7 4 5 6 14 16 12 6 5 8 15 12 7 11 10 11 10 5 4 4 11 10 6 9 8 8 8 16 18 14 15 13 11 8 6 5
25 23 18 18 19 17 15 7 7 6 4 8 17 14 2 6 8 11 7 10 14 13 8 7 8 4 2 11 13 8 7 7 8 6 6 12 15 15 15 9 9 10 8
25 24 18 19 20 17 13 13 12 12 11 16 15 9 8 3 5 8 8 7 8 8 9 4 5 8 7 7 5 8 3 5 4 7 7 9 5 7 5 6 4 13 12
26 25 20 17 23 18 18 18 17 13 10 16 15 10 7 5 4 8 11 8 7 10 6 3 4 3 5 6 4 4 3 7 8 8 4 2 2 1 2 6 4 4 9
29 29 25 22 25 22 17 15 7 9 13 19 14 10 9 6 7 7 9 7 5 12 7 4 4 5 4 6 9 5 3 2 3 6 7 3 1 2 3 3 4 6 7
30 29 29 26 26 26 17 14 12 12 13 12 11 16 13 8 6 7 7 6 7 10 6 7 4 6 5 7 7 8 7 4 1 1 9 4 5 4 2 1 3 6 8
30 31 28 29 25 25 21 16 16 9 14 17 18 18 13 11 8 8 7 5 6 8 7 6 5 6 5 8 8 3 2 3 3 0 1 3 10 7 4 3 6 2 6
29 32 29 30 26 26 26 19 19 19 14 16 20 17 15 14 10 7 8 6 6 9 7 5 7 5 6 5 6 4 3 2 3 2 1 6 3 7 8 7 5 5 3
Wind_Direction
121 123 115 105 100 97 87 87 87 88 89 86 87 95 97 94 91 91 93 93 87 86 85 84 84 84 87 96 99 102 108 110 116 115 110 106 100 94 86 95 84 88 88
124 125 115 109 99 95 93 89 93 93 94 95 96 95 95 95 97 99 97 93 94 88 83 82 83 84 85 91 103 111 120 118 118 112 104 101 95 94 91 98 96 93 88
121 122 114 114 108 105 99 94 96 99 97 95 94 94 96 94 96 96 98 99 95 93 89 84 83 80 80 85 97 117 125 124 119 114 116 94 99 97 93 92 87 85 91
121 126 115 116 110 105 100 100 99 100 98 93 93 94 92 95 94 96 99 100 96 93 93 91 90 89 87 89 97 106 119 109 93 98 37 80 103 97 94 90 88 86 80
124 120 117 117 108 109 108 111 104 95 94 97 95 95 95 97 95 98 102 103 101 95 97 110 104 100 104 107 109 117 110 103 65 60 73 167 109 102 93 90 84 93 110
126 118 125 115 115 116 110 110 104 105 100 98 99 102 106 107 109 111 113 114 111 115 120 118 112 114 111 109 119 122 119 98 67 75 83 81 107 107 103 102 96 93 87
118 119 121 116 122 118 115 119 107 109 104 106 111 117 117 117 120 122 123 126 133 136 131 125 122 129 131 120 127 113 134 104 101 71 93 101 103 99 93 93 89 83 83
119 121 126 126 121 120 122 125 116 113 118 118 125 123 121 121 126 130 130 134 127 136 141 133 107 138 142 136 143 125 119 111 103 100 103 107 109 93 84 86 78 71 91
123 130 131 133 134 130 133 130 129 134 136 133 136 125 127 127 129 124 125 127 126 134 119 108 109 115 123 145 139 143 126 112 121 107 101 91 85 78 76 84 74 77 78
141 142 135 135 135 139 138 138 139 151 153 154 150 145 137 132 109 106 102 112 118 120 118 115 113 115 119 126 131 135 133 120 98 96 76 81 80 77 72 81 73 66 63
155 137 130 142 145 150 157 141 142 150 157 134 128 143 151 144 118 88 117 125 125 131 116 107 112 121 119 114 116 118 118 138 121 96 87 93 87 81 81 80 74 68 60
153 142 139 152 148 164 154 156 162 158 116 139 295 200 127 149 131 133 126 124 113 119 118 116 112 114 108 137 131 127 122 121 114 88 104 101 98 89 92 88 85 81 76
157 160 148 144 154 167 135 174 171 157 141 125 99 37 153 127 144 145 156 118 133 82 185 181 156 141 138 159 165 138 158 143 118 111 112 110 100 99 97 91 84 80 79
155 148 148 135 159 167 144 169 127 158 144 87 54 72 25 145 86 95 354 132 99 136 188 185 194 202 219 197 107 158 152 129 124 124 126 127 124 123 108 96 94 82 77
158 147 129 131 157 165 155 150 157 145 127 116 129 101 49 117 73 96 49 38 118 110 141 144 122 128 137 126 130 120 130 136 131 131 139 137 135 134 121 110 99 88 83
155 143 133 150 147 116 127 153 150 139 152 119 108 92 52 85 76 42 234 142 70 96 137 119 120 134 122 194 140 100 150 142 144 141 139 142 137 138 132 114 105 88 84
155 149 149 145 150 133 157 179 244 153 126 104 106 116 91 84 14 2 84 75 91 103 94 116 128 173 192 133 119 146 128 121 147 150 150 155 154 155 146 129 113 98 81
160 141 162 160 149 151 161 215 221 190 150 134 132 100 96 53 48 7 84 82 54 82 91 59 75 93 129 119 151 141 114 109 106 151 170 169 166 170 168 158 148 132 125
156 148 180 159 152 163 185 196 159 200 148 138 124 105 69 62 20 46 75 75 83 75 66 82 76 128 110 139 111 98 134 131 149 143 178 163 178 177 173 174 184 177 162
152 157 184 152 154 155 170 192 172 212 158 135 111 104 88 34 25 66 76 45 80 80 80 88 77 85 39 45 113 82 88 112 135 98 174 161 178 181 183 177 195 198 200
159 163 179 167 155 157 175 180 173 211 166 113 109 111 85 47 31 359 132 66 73 89 85 79 46 46 51 16 96 145 130 117 156 117 70 135 124 159 167 186 249 192 214
165 169 173 171 165 171 192 200 184 190 176 121 116 112 123 116 87 57 63 92 86 94 86 63 49 68 85 15 342 264 175 167 153 115 126 105 232 63 41 188 167 197 224
170 173 175 177 173 189 195 217 213 156 135 118 126 148 147 139 112 82 67 67 66 131 94 79 66 41 98 47 50 29 11 22 129 160 137 164 99 187 337 285 252 221 233
173 177 179 179 174 194 200 204 193 171 157 158 172 165 150 158 146 127 114 75 71 107 113 84 125 57 9 141 117 62 74 73 47 66 166 202 150 124 257 210 169 226 219
176 178 184 181 180 193 200 199 202 205 182 184 149 143 157 168 186 144 122 120 93 99 123 125 123 106 71 55 87 123 123 176 89 47 319 197 190 179 169 226 234 299 221
181 176 183 182 187 191 199 205 191 215 226 172 147 153 165 177 183 160 158 134 119 112 124 113 91 115 117 127 110 79 51 6 55 14 328 320 217 208 196 217 233 200 224